Stations météo

réclame
Mon MeteoGroup
Luqa, Malte (16597): Température de l'air & dewpoint: 11.07.2018 13:00:00 - 17.07.2018 13:00:00 (CEST)Luqa, Malte (16597): Vitesse du vent: 11.07.2018 13:00:00 - 17.07.2018 13:00:00 (CEST)Luqa, Malte (16597): Direction du vent: 11.07.2018 13:00:00 - 17.07.2018 13:00:00 (CEST)Luqa, Malte (16597): reduced air pressure: 11.07.2018 13:00:00 - 17.07.2018 13:00:00 (CEST)Luqa, Malte (16597): visibility: 11.07.2018 13:00:00 - 17.07.2018 13:00:00 (CEST)
Date & Time tt [°C] td [°C] ff [km/h] ff [knt] dd ppp [hPa] vv [km]
17.07.2018 13:00:00 30,0 20,0 28 15 NW - 10
17.07.2018 12:00:00 29,0 20,0 35 19 NNW - 10
17.07.2018 11:00:00 29,3 20,5 28 15 NW 1014,0 10
17.07.2018 10:00:00 29,0 20,0 24 13 NW - 10
17.07.2018 09:00:00 28,0 21,0 26 14 NW - 10
17.07.2018 08:00:00 25,6 22,7 26 14 NNW 1013,9 10
17.07.2018 07:00:00 25,0 23,0 22 12 NNW - 10
17.07.2018 06:00:00 24,0 22,0 15 8 WNW - 10
17.07.2018 05:00:00 23,8 23,2 13 7 W 1013,4 10
17.07.2018 04:00:00 24,0 24,0 9 5 W - 9
17.07.2018 03:00:00 24,0 24,0 15 8 W - 8
17.07.2018 02:00:00 24,5 23,8 11 6 SW 1014,1 8
17.07.2018 01:00:00 25,0 24,0 5 3 SW - 9
17.07.2018 00:00:00 25,0 23,0 11 6 S - 10
16.07.2018 23:00:00 25,5 23,3 9 5 WNW 1015,7 10
16.07.2018 22:00:00 25,0 22,0 2 1 - - 10
16.07.2018 21:00:00 26,0 23,0 4 2 S - 10
16.07.2018 20:00:00 26,9 22,9 5 3 W 1014,7 10
16.07.2018 19:00:00 28,0 23,0 9 5 WSW - 10
16.07.2018 18:00:00 28,0 22,0 15 8 SSW - 10
16.07.2018 17:00:00 30,0 20,0 21 11 S - 10
16.07.2018 16:00:00 31,0 20,0 18 10 S - 10
16.07.2018 15:00:00 32,0 19,0 18 10 SE - 10
16.07.2018 14:00:00 31,5 20,4 13 7 E 1015,1 20
16.07.2018 13:00:00 32,0 19,0 9 5 E - 10
16.07.2018 12:00:00 31,0 18,0 11 6 NE - 10
16.07.2018 11:00:00 30,1 20,9 13 7 ENE 1015,9 10
16.07.2018 10:00:00 29,0 22,0 13 7 E - 10
16.07.2018 09:00:00 28,0 22,0 9 5 E - 10
16.07.2018 08:00:00 26,0 22,7 9 5 ENE 1014,6 10
16.07.2018 07:00:00 25,0 23,0 8 4 NNE - 10
16.07.2018 06:00:00 25,0 22,0 8 4 ENE - 10
16.07.2018 05:00:00 23,6 22,2 4 2 - 1013,6 10
16.07.2018 04:00:00 24,0 23,0 8 4 NNE - 9
16.07.2018 03:00:00 25,0 23,0 8 4 ENE - 10
16.07.2018 02:00:00 25,0 22,4 11 6 NNE 1013,9 10
16.07.2018 01:00:00 25,0 22,0 4 2 - - 10
16.07.2018 00:00:00 25,0 22,0 5 3 N - 10
15.07.2018 23:00:00 25,6 22,0 9 5 NW 1013,7 10
15.07.2018 22:00:00 26,0 22,0 9 5 NNW - 9
15.07.2018 21:00:00 26,0 22,0 15 8 NNW - 10
15.07.2018 20:00:00 26,6 22,2 21 11 NNW 1013,0 9
15.07.2018 19:00:00 28,0 22,0 24 13 N - 10
15.07.2018 18:00:00 29,0 22,0 26 14 N - 10
15.07.2018 17:00:00 29,9 22,0 26 14 NNW 1013,0 10
15.07.2018 16:00:00 30,0 22,0 28 15 NNW - 10
15.07.2018 15:00:00 30,0 21,0 26 14 NNW - 10
15.07.2018 14:00:00 30,8 20,8 31 17 WNW 1013,7 10
15.07.2018 13:00:00 31,0 20,0 22 12 N - 10
15.07.2018 12:00:00 30,0 21,0 24 13 N - 10
15.07.2018 11:00:00 29,5 21,3 21 11 NNW 1014,5 10
15.07.2018 10:00:00 29,0 21,0 24 13 NNW - 10
15.07.2018 09:00:00 27,0 21,0 31 17 NNW - 10
15.07.2018 08:00:00 25,9 21,6 28 15 NNW 1014,3 9
15.07.2018 07:00:00 25,0 23,0 21 11 NNW - 7
15.07.2018 06:00:00 24,0 23,0 16 9 NNW - 8
15.07.2018 05:00:00 25,3 18,6 8 4 NNW 1014,0 10
15.07.2018 04:00:00 25,0 16,0 11 6 WNW - 10
15.07.2018 03:00:00 27,0 13,0 5 3 WSW - 10
15.07.2018 02:00:00 26,3 15,6 9 5 WSW 1015,1 10
15.07.2018 01:00:00 27,0 16,0 9 5 WSW - 10
15.07.2018 00:00:00 26,0 15,0 5 3 W - 10
14.07.2018 23:00:00 26,6 16,9 5 3 NW 1016,0 10
14.07.2018 22:00:00 27,0 16,0 4 2 W - 10
14.07.2018 21:00:00 28,0 15,0 0 0 N - 10
14.07.2018 20:00:00 29,7 14,8 9 5 S 1014,8 10
14.07.2018 19:00:00 31,0 13,0 11 6 S - 10
14.07.2018 18:00:00 32,0 12,0 9 5 SSW - 10
14.07.2018 17:00:00 32,2 14,9 9 5 SSW 1015,5 10
14.07.2018 16:00:00 33,0 13,0 13 7 SSW - 10
14.07.2018 15:00:00 32,0 13,0 13 7 SSW - 10
14.07.2018 14:00:00 33,2 13,1 11 6 SSW 1016,4 10
14.07.2018 13:00:00 33,0 13,0 11 6 S - 10
14.07.2018 12:00:00 34,0 10,0 9 5 ESE - 10
14.07.2018 11:00:00 34,6 8,8 11 6 NE 1016,7 10
14.07.2018 10:00:00 34,0 9,0 8 4 N - 10
14.07.2018 09:00:00 32,0 7,0 8 4 NNW - 10
14.07.2018 08:00:00 29,9 8,5 2 1 - 1016,2 10
14.07.2018 07:00:00 26,0 10,0 4 2 W - 10
14.07.2018 06:00:00 24,0 10,0 5 3 WNW - 10
14.07.2018 05:00:00 24,1 10,6 5 3 W 1016,3 10
14.07.2018 04:00:00 24,0 12,0 5 3 NW - 10
14.07.2018 03:00:00 25,0 12,0 0 0 N - 10
14.07.2018 02:00:00 25,6 16,8 9 5 N 1016,5 10
14.07.2018 01:00:00 26,0 19,0 8 4 WSW - 10
14.07.2018 00:00:00 27,0 18,0 9 5 SSW - 10
13.07.2018 23:00:00 26,8 16,0 5 3 WSW 1016,6 10
13.07.2018 22:00:00 27,0 15,0 2 1 - - 10
13.07.2018 21:00:00 27,0 20,0 8 4 W - 10
13.07.2018 20:00:00 28,5 18,3 13 7 WSW 1015,8 10
13.07.2018 19:00:00 30,0 18,0 13 7 WSW - 10
13.07.2018 18:00:00 32,0 13,0 13 7 W - 10
13.07.2018 17:00:00 32,6 12,6 15 8 WSW 1016,3 10
13.07.2018 16:00:00 32,0 15,0 13 7 SW - 10
13.07.2018 15:00:00 33,0 17,0 15 8 SW - 10
13.07.2018 14:00:00 33,0 17,8 11 6 SW 1017,1 10
13.07.2018 13:00:00 34,0 16,0 15 8 SE - 10
13.07.2018 12:00:00 35,0 11,0 4 2 - - 10
13.07.2018 11:00:00 33,9 11,9 11 6 N 1017,6 10
13.07.2018 10:00:00 33,0 11,0 9 5 NW - 10
13.07.2018 09:00:00 31,0 14,0 8 4 N - 10
13.07.2018 08:00:00 27,9 14,0 4 2 - 1016,9 10
13.07.2018 07:00:00 25,0 19,0 8 4 W - 10
13.07.2018 06:00:00 23,0 14,0 9 5 SW - 10
13.07.2018 05:00:00 23,1 14,5 5 3 WSW 1016,2 10
13.07.2018 04:00:00 24,0 14,0 4 2 WNW - 10
13.07.2018 03:00:00 23,0 15,0 2 1 NW - 10
13.07.2018 02:00:00 24,2 17,1 8 4 NNW 1016,9 10
13.07.2018 01:00:00 24,0 19,0 2 1 N - 10
13.07.2018 00:00:00 24,0 19,0 4 2 NW - 10
12.07.2018 23:00:00 24,9 19,5 2 1 ESE 1016,9 10
12.07.2018 22:00:00 25,0 20,0 9 5 SSE - 10
12.07.2018 21:00:00 26,0 19,0 11 6 SSE - 10
12.07.2018 20:00:00 28,4 17,8 8 4 SE 1016,1 10
12.07.2018 19:00:00 30,0 15,0 9 5 WSW - 10
12.07.2018 18:00:00 31,0 14,0 13 7 W - 10
12.07.2018 17:00:00 31,8 14,5 13 7 W 1015,7 10
12.07.2018 16:00:00 32,0 15,0 16 9 WSW - 10
12.07.2018 15:00:00 33,0 14,0 16 9 WSW - 10
12.07.2018 14:00:00 33,0 12,1 11 6 NNW 1016,3 10
12.07.2018 13:00:00 33,0 13,0 15 8 N - 10
12.07.2018 12:00:00 32,0 13,0 15 8 N - 10
12.07.2018 11:00:00 31,0 13,8 13 7 N 1016,8 10
12.07.2018 10:00:00 31,0 14,0 11 6 N - 10
12.07.2018 09:00:00 28,0 17,0 8 4 NNW - 10
12.07.2018 08:00:00 25,3 19,7 9 5 N 1015,9 10
12.07.2018 07:00:00 24,0 22,0 13 7 NNW - 10
12.07.2018 06:00:00 23,0 22,0 9 5 N - 10
12.07.2018 05:00:00 23,2 21,6 5 3 WNW 1015,3 10
12.07.2018 04:00:00 23,0 22,0 16 9 WNW - 10
12.07.2018 03:00:00 23,0 22,0 11 6 WNW - 10
12.07.2018 02:00:00 23,5 21,5 9 5 W 1015,8 10
12.07.2018 01:00:00 24,0 22,0 13 7 W - 10
12.07.2018 00:00:00 24,0 22,0 11 6 W - 10
11.07.2018 23:00:00 23,9 21,8 13 7 W 1016,1 10
11.07.2018 22:00:00 24,0 22,0 11 6 WSW - 10
11.07.2018 21:00:00 24,0 22,0 13 7 W - 10
11.07.2018 20:00:00 25,4 21,1 15 8 W 1014,9 10
11.07.2018 19:00:00 26,0 21,0 15 8 W - 10
11.07.2018 18:00:00 27,0 20,0 15 8 W - 10
11.07.2018 17:00:00 28,2 19,4 16 9 W 1014,6 10
11.07.2018 16:00:00 29,0 18,0 18 10 W - 10
11.07.2018 15:00:00 29,0 17,0 22 12 NW - 10
11.07.2018 14:00:00 29,1 18,4 11 6 N 1015,1 10
11.07.2018 13:00:00 29,0 18,0 15 8 NW - 10

tt = Température de l'air
td = dewpoint
ff = Vitesse du vent
dd = Direction du vent
ppp = reduced air pressure
vv = visibility

stations d'obs. à proximité